Location: Unspecified
(29.6516°N, 0.0000°E)
Time: 02:18:11
(UTC+00:00)

OPS 4467A - Visible Passes

Search period start: 04 April 2026 00:00
Search period end: 14 April 2026 00:00
Orbit: 806 x 813 km, 99.8° (Epoch: 29 March)

Date Brightness Start Highest point End Pass type
(mag) Time Alt. Az. Time Alt. Az. Time Alt. Az.
4 Apr ? 02:11:51 10° N 02:11:51 10° N 02:11:56 10° N visible
6 Apr ? 03:04:24 11° NNW 03:04:24 11° NNW 03:04:41 10° NNW visible
7 Apr ? 02:40:06 15° N 02:40:06 15° N 02:40:55 10° N visible
8 Apr ? 02:15:49 15° NNE 02:15:49 15° NNE 02:16:49 10° N visible
9 Apr ? 01:51:31 13° NNE 01:51:31 13° NNE 01:52:18 10° NNE visible
9 Apr ? 03:32:38 11° NNW 03:32:38 11° NNW 03:32:53 10° NNW visible
10 Apr ? 03:08:21 17° NNW 03:08:21 17° NNW 03:09:29 10° NNW visible
11 Apr ? 02:44:03 21° N 02:44:03 21° N 02:45:44 10° N visible
12 Apr ? 02:19:45 21° NNE 02:19:45 21° NNE 02:21:41 10° N visible
13 Apr ? 01:55:27 17° NE 01:55:27 17° NE 01:57:13 10° NNE visible
13 Apr ? 03:36:34 15° NW 03:36:34 15° NW 03:37:38 10° NNW visible
